Simultaneous Nadir Overpasses (SNOs) Predictions

Prediction of SNOs between LANDSAT-8 and METOP-A Satellite Orbit:

Table of predicted SNOs for the next 14.0 days since TLE Epoch: 4/11/2020
Index Date (LANDSAT-8) Time (LANDSAT-8) Lat,Lon (LANDSAT-8) SZA (LANDSAT-8 ) Date (METOP-A) Time (METOP-A) Lat,Lon (METOP-A) SZA (METOP-A ) Distance(km) Time Diff (sec)
1 04/12/2020 16:47:00 81.48, -26.01 75.04 04/12/2020 16:46:39 81.49, -25.87 75.05 2.53 21
2 04/12/2020 17:36:27 -81.48, 141.56 104.99 04/12/2020 17:37:19 -81.49, 141.74 104.94 3.20 52
3 04/15/2020 12:21:13 81.49, 40.75 74.10 04/15/2020 12:21:00 81.49, 40.72 74.08 1.01 13
4 04/15/2020 13:10:40 -81.49,-151.65 105.93 04/15/2020 13:11:40 -81.48,-151.63 105.90 1.12 60
5 04/18/2020 07:55:29 81.48, 106.81 73.08 04/18/2020 07:55:23 81.49, 106.89 73.09 1.80 6
6 04/18/2020 08:44:56 -81.48, -85.56 106.94 04/18/2020 08:46:03 -81.48, -85.42 106.89 2.34 67
7 04/21/2020 02:40:18 -81.48, 5.70 107.84 04/21/2020 02:39:05 -81.49, 5.88 107.85 3.01 73
8 04/21/2020 03:29:44 81.48, 173.35 72.15 04/21/2020 03:29:45 81.49, 173.45 72.17 1.67 1
9 04/21/2020 04:19:06 -81.57, -17.00 107.59 04/21/2020 04:20:20 -81.45, -16.84 107.61 13.17 74
10 04/23/2020 22:14:32 -81.49, 72.36 108.73 04/23/2020 22:13:26 -81.49, 72.46 108.75 1.85 66




NCC Satellite Simultaneous Nadir Overpasses (SNOs) Prediction Service
